Location: Hanover
(52.3667°N, 9.7167°E)
Time: 03:58:09
(UTC+02:00)

ARIANE 6 FM1 Upper Stage - Pass Details

Date: 25 September 2024
Orbit: 564 x 594 km, 62.0° (Epoch: 06 October)

Event Time Altitude Azimuth Distance (km) Brightness Sun altitude
Rises 20:37:13 0° 226° (SW) 2,780 6.6 -13.8°
Reaches altitude 10° 20:39:26 10° 226° (SW) 1,890 5.7 -14.1°
Maximum altitude 20:43:42 87° 142° (SE) 591 2.7 -14.7°
Drops below altitude 10° 20:48:04 10° 50° (NE) 1,921 5.1 -15.3°
Enters shadow 20:48:23 - 50° (NE) 2,047 5.2 -15.4°
